SCP
0 0 0 0 0 0 0 0 0 0 0 0 0 0 0 0 0 0 0 0 0 0
0 0 0 0 0 0 0 0 0 0 0 0 0 0 0 0 0 0 0 0 0 0
0 0 0 0 0 0 0 0 0 0 0 0 0 0 0 0 0 0 0 0 0 0
0 0 0 0 0 0 0 0 0 0 0 0 0 0 0 0 0 0 0 0 0 0
0 0 0 0 0 0 0 0 0 0 0 0 0 0 0 0 0 0 0 0 0 0
0 0 0 0 0 0 0 0 0 0 0 0 0 0 0 0 0 0 0 0 0 0
0 0 0 0 0 0 0 0 0 0 0 0 0 0 0 0 0 0 0 0 0 0
0 0 0 0 0 0 0 0 0 0 0 0 0 0 0 0 0 0 0 0 0 0
0 0 0 0 0 0 0 0 0 0 0 0 0 0 0 0 0 0 0 0 0 0
0 0 0 0 0 0 0 0 0 0 0 0 0 0 0 0 0 0 0 0 0 0
0 0 0 0 0 0 0 0 0 0 0 0 0 0 0 0 0 0 0 0 0 0
0 0 0 0 0 0 0 0 0 0 0 0 0 0 0 0 0 0 0 0 0 0
0 0 0 0 0 0 0 0 0 0 0 0 0 0 0 0 0 0 0 0 0 0
0 0 0 0 0 0 0 0 0 0 0 0 0 0 0 0 0 0 0 0 0 0
Wind_Speed_500mb
47 53 55 55 58 60 58 61 60 63 80 77 79 76 88 87 84 91 91 96 87 108
38 40 45 48 51 53 53 52 55 59 65 70 71 71 72 78 82 84 86 92 95 99
32 34 40 46 47 48 48 47 47 52 55 60 66 73 77 82 85 87 88 93 86 91
21 26 32 37 39 38 39 39 41 45 50 56 60 64 67 70 77 82 83 87 94 94
14 19 24 26 27 30 33 38 41 46 51 55 56 57 60 68 72 76 83 87 87 85
21 22 23 26 29 33 36 38 41 45 48 52 57 60 65 69 70 78 79 81 83 87
27 30 32 32 33 34 35 38 42 47 52 55 59 64 68 69 71 75 74 79 88 82
32 35 38 41 42 41 43 45 46 49 53 58 63 67 69 72 77 80 81 79 85 88
35 36 36 40 45 51 55 55 55 56 58 61 64 65 66 71 79 84 89 90 87 87
42 42 42 43 44 46 50 55 62 66 69 71 71 67 67 70 79 85 90 94 91 93
41 43 44 44 44 47 52 56 61 66 70 75 75 72 69 69 77 86 91 95 97 96
48 48 49 48 46 45 49 54 60 67 74 79 82 75 69 67 76 86 92 94 98 102
51 53 55 55 58 61 63 64 62 64 66 73 79 78 68 62 71 85 90 96 97 101
49 54 58 61 60 65 67 70 73 75 70 67 67 68 62 58 64 76 83 93 97 98
Wind_Direction_500mb
253 255 260 264 267 268 268 264 260 264 258 248 247 256 251 252 256 257 255 260 257 258
252 254 258 261 265 268 268 265 261 260 263 261 260 260 262 264 265 262 261 269 257 260
257 255 258 262 267 268 267 262 257 256 258 259 260 259 258 259 261 261 261 263 262 262
278 276 279 280 278 273 266 262 258 258 260 262 263 264 263 260 259 260 263 263 263 263
329 315 310 309 303 294 288 279 274 268 265 264 263 264 261 264 265 263 262 264 265 267
345 333 329 324 314 305 299 292 286 282 279 277 273 270 268 266 263 263 263 265 266 266
336 323 317 311 307 303 299 295 294 292 288 283 279 276 274 270 267 263 263 266 266 265
345 337 327 318 310 305 303 301 297 294 291 289 285 282 279 274 270 267 264 267 267 263
333 328 321 318 316 314 310 305 300 298 297 292 290 289 286 282 278 272 270 268 270 269
337 333 328 323 316 312 308 307 305 301 296 294 292 291 288 284 280 276 272 269 270 270
345 342 336 330 323 319 313 310 308 305 301 296 292 289 287 285 281 278 274 272 270 270
342 342 340 332 329 324 315 311 309 305 302 301 299 294 286 281 277 276 277 275 272 270
328 328 328 327 327 325 322 316 311 307 305 304 303 300 298 290 281 277 276 276 276 274
318 319 319 318 317 316 316 317 314 312 309 307 311 310 302 293 284 280 280 279 277 276
Wind_Speed_850mb
47 53 55 55 58 60 58 61 60 63 80 77 79 76 88 87 84 91 91 96 87 108
38 40 45 48 51 53 53 52 55 59 65 70 71 71 72 78 82 84 86 92 95 99
32 34 40 46 47 48 48 47 47 52 55 60 66 73 77 82 85 87 88 93 86 91
21 26 32 37 39 38 39 39 41 45 50 56 60 64 67 70 77 82 83 87 94 94
14 19 24 26 27 30 33 38 41 46 51 55 56 57 60 68 72 76 83 87 87 85
21 22 23 26 29 33 36 38 41 45 48 52 57 60 65 69 70 78 79 81 83 87
27 30 32 32 33 34 35 38 42 47 52 55 59 64 68 69 71 75 74 79 88 82
32 35 38 41 42 41 43 45 46 49 53 58 63 67 69 72 77 80 81 79 85 88
35 36 36 40 45 51 55 55 55 56 58 61 64 65 66 71 79 84 89 90 87 87
42 42 42 43 44 46 50 55 62 66 69 71 71 67 67 70 79 85 90 94 91 93
41 43 44 44 44 47 52 56 61 66 70 75 75 72 69 69 77 86 91 95 97 96
48 48 49 48 46 45 49 54 60 67 74 79 82 75 69 67 76 86 92 94 98 102
51 53 55 55 58 61 63 64 62 64 66 73 79 78 68 62 71 85 90 96 97 101
49 54 58 61 60 65 67 70 73 75 70 67 67 68 62 58 64 76 83 93 97 98
Wind_Direction_850mb
253 255 260 264 267 268 268 264 260 264 258 248 247 256 251 252 256 257 255 260 257 258
252 254 258 261 265 268 268 265 261 260 263 261 260 260 262 264 265 262 261 269 257 260
257 255 258 262 267 268 267 262 257 256 258 259 260 259 258 259 261 261 261 263 262 262
278 276 279 280 278 273 266 262 258 258 260 262 263 264 263 260 259 260 263 263 263 263
329 315 310 309 303 294 288 279 274 268 265 264 263 264 261 264 265 263 262 264 265 267
345 333 329 324 314 305 299 292 286 282 279 277 273 270 268 266 263 263 263 265 266 266
336 323 317 311 307 303 299 295 294 292 288 283 279 276 274 270 267 263 263 266 266 265
345 337 327 318 310 305 303 301 297 294 291 289 285 282 279 274 270 267 264 267 267 263
333 328 321 318 316 314 310 305 300 298 297 292 290 289 286 282 278 272 270 268 270 269
337 333 328 323 316 312 308 307 305 301 296 294 292 291 288 284 280 276 272 269 270 270
345 342 336 330 323 319 313 310 308 305 301 296 292 289 287 285 281 278 274 272 270 270
342 342 340 332 329 324 315 311 309 305 302 301 299 294 286 281 277 276 277 275 272 270
328 328 328 327 327 325 322 316 311 307 305 304 303 300 298 290 281 277 276 276 276 274
318 319 319 318 317 316 316 317 314 312 309 307 311 310 302 293 284 280 280 279 277 276